Home > Weather > Erkelenz > Past weeks

Flag for Germany Past Weather in Erkelenz, North Rhine-Westphalia, Germany — Yesterday and Last 2 Weeks

Now
68 °F

Scattered clouds.


Feels Like: 68 °F
Forecast: 55 / 62 °F
Wind: 10 mph from Southwest

Location: Monchengladbach Airport

Current Time: Jul 1, 2016 at 10:02:44 AM

Latest Report: Jul 1, 2016 at 9:20 AM


Visibility: N/A

Pressure: 29.92 "Hg

Humidity: 78%

Dew Point: 61 °F

Location of ErkelenzLocation

Past Weather in Erkelenz — Graph

°F

Erkelenz Temperature Yesterday

Maximum temperature yesterday: 70 °F (at 3:20 PM)
Minimum temperature yesterday: 59 °F (at 7:20 AM)
Average temperature yesterday: 67 °F

High & Low Weather Summary for the Past Weeks

 TemperatureHumidityPressure
High91 °F (Jun 23, 4:50 PM)100% (Jun 18, 7:50 AM)30.27 "Hg (Jun 18, 7:50 AM)
Low54 °F (Jun 20, 7:50 AM)43% (Jun 29, 4:50 PM)29.59 "Hg (Jun 16, 2:50 PM)
Average66 °F74%29.99 "Hg
* Reported Jun 16 8:20 AM — Jul 1 8:50 AM, Erkelenz, Weather by CustomWeather, © 2016

Note: Actual official high and low records may vary slightly from our data, if they occured in-between our weather recording intervals... More about our weather records

Advertising

Erkelenz Weather History for the Previous 24 Hours

Scroll right to see more
 ConditionsComfort  
Time TempWeatherWind HumidityBarometerVisibility
8:50 AM
Fri, Jul 1
66 °FBroken clouds.8 mph83%29.92 "HgN/A
8:20 AM66 °FPartly sunny.6 mph83%29.92 "HgN/A
7:50 AM66 °FBroken clouds.5 mph83%29.89 "HgN/A
8:50 PM
Thu, Jun 30
68 °FPassing clouds.9 mph73%29.89 "HgN/A
8:20 PM70 °FPassing clouds.6 mph69%29.89 "HgN/A
7:50 PM70 °FPartly cloudy.9 mph69%29.89 "HgN/A
7:20 PM70 °FPassing clouds.6 mph69%29.89 "HgN/A
6:50 PM70 °FPartly cloudy.8 mph69%29.89 "HgN/A
6:20 PM70 °FPartly cloudy.8 mph69%29.89 "HgN/A
5:50 PM68 °FPassing clouds.9 mph73%29.89 "HgN/A
5:20 PM70 °FPassing clouds.8 mph69%29.89 "HgN/A
4:50 PM70 °FPassing clouds.6 mph69%29.89 "HgN/A
4:20 PM68 °FPartly cloudy.9 mph69%29.92 "HgN/A
3:50 PM70 °FPartly cloudy.9 mph60%29.92 "HgN/A
3:20 PM70 °FPartly cloudy.7 mph64%29.92 "HgN/A
2:50 PM68 °FPartly cloudy.8 mph69%29.92 "HgN/A
2:20 PM68 °FPassing clouds.8 mph64%29.92 "HgN/A
1:50 PM66 °FPartly sunny.9 mph73%29.92 "HgN/A
1:20 PM66 °FPartly sunny.8 mph73%29.92 "HgN/A
12:50 PM68 °FPartly sunny.9 mph69%29.92 "HgN/A
12:20 PM66 °FPartly sunny.8 mph73%29.92 "HgN/A
11:50 AM66 °FPartly sunny.8 mph68%29.92 "HgN/A
11:20 AM66 °FPartly sunny.9 mph68%29.89 "HgN/A
10:50 AM64 °FScattered clouds.9 mph73%29.89 "HgN/A
10:20 AM64 °FBroken clouds.9 mph73%29.89 "HgN/A
Weather by CustomWeather, © 2016

See weather overviewHow to use our weather pages